TimePDT,TemperatureF,Dew PointF,Humidity,Sea Level PressureIn,VisibilityMPH,Wind Direction,Wind SpeedMPH,Gust SpeedMPH,PrecipitationIn,Events,Conditions,WindDirDegrees,DateUTC
12:15 AM,42.8,41.0,93,30.33,0.8,North,-9999.0,-,N/A,,Mostly Cloudy,0,2012-09-30 07:15:00
12:35 AM,44.6,42.8,93,30.33,3.0,North,-9999.0,-,N/A,,Clear,0,2012-09-30 07:35:00
12:55 AM,41.0,39.2,93,30.34,1.0,Calm,Calm,-,N/A,,Clear,0,2012-09-30 07:55:00
1:15 AM,42.8,41.0,93,30.33,0.2,Calm,Calm,-,N/A,,Unknown,0,2012-09-30 08:15:00
1:35 AM,41.0,39.2,93,30.34,1.8,Calm,Calm,-,N/A,,Scattered Clouds,0,2012-09-30 08:35:00
1:55 AM,39.2,37.4,93,30.34,0.2,Calm,Calm,-,N/A,,Unknown,0,2012-09-30 08:55:00
2:15 AM,41.0,39.2,93,30.35,0.5,Calm,Calm,-,N/A,,Mostly Cloudy,0,2012-09-30 09:15:00
2:35 AM,39.2,37.4,93,30.34,10.0,Calm,Calm,-,N/A,,Partly Cloudy,0,2012-09-30 09:35:00
2:55 AM,37.4,35.6,93,30.35,0.5,Calm,Calm,-,N/A,,Mostly Cloudy,0,2012-09-30 09:55:00
3:15 AM,39.2,35.6,87,30.35,0.5,Calm,Calm,-,N/A,,Overcast,0,2012-09-30 10:15:00
3:35 AM,39.2,37.4,93,30.35,2.0,Calm,Calm,-,N/A,,Mostly Cloudy,0,2012-09-30 10:35:00
3:55 AM,39.2,37.4,93,30.35,1.5,Calm,Calm,-,N/A,,Scattered Clouds,0,2012-09-30 10:55:00
4:15 AM,39.2,37.4,93,30.36,3.0,Calm,Calm,-,N/A,,Clear,0,2012-09-30 11:15:00
4:35 AM,37.4,37.4,100,30.36,1.8,Calm,Calm,-,N/A,,Clear,0,2012-09-30 11:35:00
4:55 AM,37.4,35.6,93,30.36,5.0,Calm,Calm,-,N/A,,Clear,0,2012-09-30 11:55:00
5:15 AM,37.4,37.4,100,30.36,0.8,Calm,Calm,-,N/A,,Unknown,0,2012-09-30 12:15:00
5:35 AM,39.2,37.4,93,30.36,0.8,Calm,Calm,-,N/A,,Unknown,0,2012-09-30 12:35:00
5:55 AM,37.4,35.6,93,30.36,2.5,Calm,Calm,-,N/A,,Clear,0,2012-09-30 12:55:00
6:15 AM,37.4,35.6,93,30.38,1.8,Calm,Calm,-,N/A,,Clear,0,2012-09-30 13:15:00
6:35 AM,37.4,35.6,93,30.38,2.5,Calm,Calm,-,N/A,,Clear,0,2012-09-30 13:35:00
7:15 AM,35.6,33.8,93,30.40,9.0,Calm,Calm,-,N/A,,Clear,0,2012-09-30 14:15:00
7:35 AM,37.4,35.6,93,30.40,4.0,Calm,Calm,-,N/A,,Clear,0,2012-09-30 14:35:00
7:55 AM,37.4,35.6,93,30.40,10.0,Calm,Calm,-,N/A,,Clear,0,2012-09-30 14:55:00
8:15 AM,39.2,37.4,93,30.41,10.0,Calm,Calm,-,N/A,,Clear,0,2012-09-30 15:15:00
8:35 AM,42.8,39.2,87,30.41,10.0,Calm,Calm,-,N/A,,Clear,0,2012-09-30 15:35:00
8:55 AM,44.6,41.0,87,30.42,10.0,Calm,Calm,-,N/A,,Clear,0,2012-09-30 15:55:00
9:15 AM,46.4,42.8,87,30.42,10.0,Calm,Calm,-,N/A,,Clear,0,2012-09-30 16:15:00
9:35 AM,48.2,42.8,82,30.42,10.0,Calm,Calm,-,N/A,,Clear,0,2012-09-30 16:35:00
9:55 AM,51.8,42.8,71,30.42,10.0,Calm,Calm,-,N/A,,Clear,0,2012-09-30 16:55:00
10:15 AM,53.6,44.6,72,30.42,10.0,Calm,Calm,-,N/A,,Clear,0,2012-09-30 17:15:00
10:35 AM,55.4,44.6,67,30.42,10.0,Calm,Calm,-,N/A,,Clear,0,2012-09-30 17:35:00
10:55 AM,55.4,44.6,67,30.42,10.0,Calm,Calm,-,N/A,,Clear,0,2012-09-30 17:55:00
11:15 AM,57.2,46.4,67,30.41,10.0,Calm,Calm,-,N/A,,Clear,0,2012-09-30 18:15:00
11:35 AM,59.0,44.6,59,30.41,10.0,Calm,Calm,-,N/A,,Clear,0,2012-09-30 18:35:00
11:55 AM,62.6,44.6,52,30.41,10.0,WNW,3.5,-,N/A,,Clear,290,2012-09-30 18:55:00
12:15 PM,62.6,46.4,55,30.41,10.0,NNW,6.9,-,N/A,,Clear,330,2012-09-30 19:15:00
12:35 PM,62.6,46.4,55,30.41,10.0,NW,8.1,-,N/A,,Clear,310,2012-09-30 19:35:00
12:55 PM,62.6,46.4,55,30.41,10.0,NW,6.9,-,N/A,,Clear,310,2012-09-30 19:55:00
1:15 PM,62.6,46.4,55,30.41,10.0,NNW,10.4,-,N/A,,Clear,330,2012-09-30 20:15:00
1:35 PM,64.4,46.4,52,30.40,10.0,WNW,4.6,-,N/A,,Clear,290,2012-09-30 20:35:00
1:55 PM,64.4,44.6,49,30.40,10.0,WNW,6.9,-,N/A,,Clear,300,2012-09-30 20:55:00
2:15 PM,66.2,44.6,46,30.39,10.0,NW,6.9,-,N/A,,Clear,310,2012-09-30 21:15:00
2:35 PM,66.2,44.6,46,30.39,10.0,NW,8.1,-,N/A,,Clear,310,2012-09-30 21:35:00
2:55 PM,66.2,46.4,49,30.39,10.0,NW,5.8,-,N/A,,Clear,320,2012-09-30 21:55:00
3:15 PM,66.2,46.4,49,30.39,10.0,NW,8.1,-,N/A,,Clear,310,2012-09-30 22:15:00
3:35 PM,66.2,46.4,49,30.39,10.0,West,6.9,-,N/A,,Clear,280,2012-09-30 22:35:00
3:55 PM,66.2,46.4,49,30.38,10.0,WNW,8.1,-,N/A,,Clear,300,2012-09-30 22:55:00
4:15 PM,66.2,46.4,49,30.38,10.0,WNW,6.9,-,N/A,,Clear,300,2012-09-30 23:15:00
4:35 PM,66.2,46.4,49,30.38,10.0,WNW,6.9,-,N/A,,Clear,290,2012-09-30 23:35:00
4:55 PM,66.2,46.4,49,30.38,10.0,WNW,9.2,-,N/A,,Clear,290,2012-09-30 23:55:00
5:15 PM,66.2,46.4,49,30.38,10.0,WNW,9.2,-,N/A,,Clear,290,2012-10-01 00:15:00
5:35 PM,64.4,46.4,52,30.38,10.0,WNW,9.2,-,N/A,,Clear,300,2012-10-01 00:35:00
6:15 PM,62.6,44.6,52,30.38,10.0,WNW,4.6,-,N/A,,Clear,290,2012-10-01 01:15:00
6:35 PM,60.8,44.6,55,30.38,10.0,WNW,6.9,-,N/A,,Clear,290,2012-10-01 01:35:00
6:55 PM,57.2,44.6,63,30.39,10.0,WNW,6.9,-,N/A,,Clear,300,2012-10-01 01:55:00
7:15 PM,55.4,44.6,67,30.39,10.0,WNW,8.1,-,N/A,,Clear,300,2012-10-01 02:15:00
7:35 PM,55.4,46.4,72,30.39,10.0,NW,9.2,-,N/A,,Clear,310,2012-10-01 02:35:00
7:55 PM,55.4,46.4,72,30.40,10.0,NW,6.9,-,N/A,,Clear,310,2012-10-01 02:55:00
8:15 PM,53.6,46.4,77,30.40,10.0,North,4.6,-,N/A,,Clear,350,2012-10-01 03:15:00
8:35 PM,53.6,44.6,72,30.39,10.0,NNW,4.6,-,N/A,,Clear,340,2012-10-01 03:35:00
8:55 PM,51.8,44.6,76,30.40,10.0,Calm,Calm,-,N/A,,Clear,0,2012-10-01 03:55:00
9:15 PM,53.6,46.4,77,30.40,10.0,Calm,Calm,-,N/A,,Clear,0,2012-10-01 04:15:00
9:35 PM,51.8,44.6,76,30.40,10.0,Calm,Calm,-,N/A,,Clear,0,2012-10-01 04:35:00
9:55 PM,51.8,44.6,76,30.39,10.0,Calm,Calm,-,N/A,,Clear,0,2012-10-01 04:55:00
10:15 PM,48.2,44.6,87,30.39,10.0,Calm,Calm,-,N/A,,Clear,0,2012-10-01 05:15:00
10:35 PM,48.2,42.8,82,30.39,10.0,Calm,Calm,-,N/A,,Clear,0,2012-10-01 05:35:00
10:55 PM,48.2,44.6,87,30.39,10.0,Calm,Calm,-,N/A,,Clear,0,2012-10-01 05:55:00
11:15 PM,46.4,42.8,87,30.39,10.0,Calm,Calm,-,N/A,,Clear,0,2012-10-01 06:15:00
11:35 PM,46.4,41.0,81,30.39,10.0,NNW,4.6,-,N/A,,Clear,330,2012-10-01 06:35:00
11:55 PM,46.4,44.6,93,30.39,10.0,North,3.5,-,N/A,,Clear,10,2012-10-01 06:55:00